SL-16 DEB, 22294

Orbit data source: Space-Track

SL-16 DEB, 22294 is space debris in LEO originally from a launch on Fri, 25 Dec 1992 UTC launched from the Tyuratam Missile And Space Complex (TTMTR). Debris objects in space refer to the collection of defunct objects orbiting the Earth. Examples of debris include non-operational satellites, rocket bodies, and fragments generated from explosions, collisions, or faulty payload assembly.

Loading next visibility...
Identifier
22294, 1992-093J
Orbit
LEO
Country
Flag of CISCIS
Related business
Manufacturer
Unknown
Mission
Spacecraft
Bus & Motor
Unknown
Mass
Unknown
Launch date (UTC)
1992-12-25 (33 years ago)
Launch vehicle
Unknown
Launch site
Tyuratam Missile And Space Complex (TTMTR)
Object type
Payload
Rocket body
Debris
Shape & HBR
Unknown shape, 0.6 m
Radar Cross Section
Medium (>0.1 m² and <1 m²)

Expand to show TLE details & history
Last TLE update: 8 hours ago

TLE from 8 hours ago
0 SL-16 DEB
1 22294U 92093J   25296.68195103 -.00000137  00000-0 -48518-4 0  9992
2 22294  71.0581 174.6774 0098674 158.9576 268.6806 14.10524821689663
Epoch: 2025-10-23T16:22Z
TLE epoch observation values (Epoch: 2025-10-23T16:22:00.568Z)
Latitude
60.27245°
Longitude
-66.44685°
Altitude
869.649 km
Speed
7.422 km/s
True Right ascension
14h 05m 34s
True Declination
60° 07' 35"
Sunlit
Object was in daylight at epoch
Visualization orbit readout
Latitude
Unknown
Longitude
Unknown
Altitude
Unknown
Speed
Unknown
Apparent Right ascension
Unknown
Apparent Declination
Unknown
Sunlit
N/A
Visualization observer readout
Local Sidereal Time
19:31:34
Azimuth
Unknown
Elevation
Unknown
Doppler factor
Unknown
Orbital elements
Apogee altitude
926.877 km
Perigee altitude
784.122 km
Semi-major axis
7,233.637 km
Eccentricity
0.00987
Inclination
71.0581°
RAAN
174.6774°
Arg. of periapsis
158.9576°
True anomaly
267.55057°
Mean anomaly
268.6806°
Eccentric anomaly
268.11555°
Mean motion
3.52783 °/min
Orbital period
102.05 mins
BSTAR
-0.000048518
Loading maneuver chart data...
Computing Atmospheric mass density...
Loading historical data...
Loading historical data...
Loading historical data...
Loading historical data...
Loading historical data...
Loading historical data...
Loading historical data...

Documentation

Showing up to 5 results
|